Погода в Асланбеке-Шерипово

Россия / Чеченская Республика     42°50′21″N   45°44′57″E
темп.,
°C
ветер,
м/с
пор.,
м/с
влажн.,
%
обл.,
%
осадки,
мм/ч
давл.,
гПа
погр.,
м
14 апреля, ср
ср1400:00+4ююв119032 0.9 1017100
03:00+4в1189100 1.1 101511
06:00+2ссз119870 0.2 101759
09:00+3ссз2296100 0.4 1017352
12:00+3ссз2398100 1.6 1017376
15:00+3зсз1194100 5.1 1017279
18:00+3юз1293100 0.8 1018134
21:00+2ю228967 0.8 102025
15 апреля, чт
чт1500:000ю22826 0.0 102022
03:000ю32812 0.0 102029
06:00+1ю22754 0.0 102036
09:00+8с21490 0.0 1016788
12:00+11с33475 0.0 10151552
15:00+10с3363100 0.8 10151189
18:00+7с1283100 1.1 1017376
21:00+5ю0086100 1.1 101872
16 апреля, пт
пт1600:00+4ю1188100 0.0 101814
03:00+3ю2281100 0.0 101919
06:00+4ю217666 0.0 101924
09:00+9с226062 0.0 10171084
12:00+10с216298 0.7 10171123
15:00+10с226086 1.9 10161125
18:00+9с117121 0.6 101639
21:00+5ю33795 1.2 101855
17 апреля, сб
сб1700:00+5ю328042 0.0 101939
03:00+4ю337897 0.0 101952
06:00+5ююв237697 0.0 101959
09:00+7с327598 0.0 1020660
12:00+5с2396100 0.4 1022524
15:00+4с2299100 1.5 1023353
18:00+3ссв1199100 0.2 1024230
21:00+4вюв1296100 0.2 1022120
18 апреля, вс
вс1800:00+4в1195100 0.0 102124
03:00+4вюв1195100 0.3 102123
06:00+4с1199100 0.6 102174
09:00+6вюв129191 3.5 1020175
12:00+9с3282100 0.1 1019473
15:00+7с2193100 0.3 1018277
18:00+8с129144 0.0 101999
21:00+6ююв118621 0.0 102128